Location: Moscow
(55.7500°N, 37.5830°E)
Time: 17:44:54
(UTC+03:00)

Transit 2A - Pass Details

Date: 07 December 2021
Orbit: 591 x 967 km, 66.7° (Epoch: 21 January)

Event Time Altitude Azimuth Distance (km) Brightness Sun altitude
Rises 01:41:58 0° 241° (WSW) 3,424 - -53.6°
Reaches altitude 10° 01:44:25 10° 245° (WSW) 2,540 - -53.4°
Maximum altitude 01:50:17 57° 324° (NW) 1,090 - -53.0°
Drops below altitude 10° 01:56:34 10° 43° (NE) 2,706 - -52.4°
Exits shadow 01:57:07 - 44° (NE) 2,897 9.4 -52.4°
Sets 01:59:15 0° 48° (NE) 3,665 10.1 -52.2°
